#timestamp,LO_Frequency,Hit,StdDev 
1524693615.5,286046999.7,P
1524693635.3,286047000.5,N
1524693655.2,286046999.7,N
1524693675.9,286046999.7,N
1524693695.7,286047000.4,N
1524693715.6,286047001.2,N
1524693735.4,286046998.8,N
1524693755.2,286046998.6,N
1524693775.1,286046998.1,N
1524693776.0,286046998.1,N
1524693795.8,286047000.5,N
1524693815.7,286047002.4,N
1524693835.5,286046999.9,N
1524693855.3,286047000.4,N
1524693875.2,286046999.7,N
1524693895.0,286047002.8,N
1524693895.9,286047002.8,N
1524693915.8,286047002.3,N
1524693935.6,286047000.5,N
1524693955.4,286046999.8,N
1524693975.3,286047000.2,N
1524693995.1,286047000.4,N
1524694015.8,286047001.2,N
1524694035.7,286047001.2,N
1524694055.5,286047000.9,N
1524694075.4,286046998.1,N
1524694095.2,286047000.4,N
1524694115.0,286046999.7,N
1524694115.9,286046999.7,N
1524694135.8,286047002.8,N
1524694155.6,286047002.1,N
1524694175.5,286047000.3,N
1524694195.3,286047000.2,N
1524694215.1,286047000.1,N
1524694235.9,286047002.2,N
1524694255.7,286047001.9,N
1524694275.5,286047001.3,N
1524694295.4,286047002.3,N
1524694315.2,286047002.7,N
1524694335.1,286047001.0,N
1524694336.0,286047001.0,N
1524694355.8,286047001.0,N
1524694375.6,286047002.5,N
1524694395.5,286046999.9,N
1524694415.3,286047000.2,N
1524694435.1,286047000.3,N
1524694455.9,286047002.6,N
1524694475.7,286047002.2,N
1524694495.6,286047001.5,N
1524694515.4,286047001.6,N
1524694535.2,286047004.4,Y
1524694555.1,286047002.8,P
1524694556.0,286047002.8,P
1524694575.8,286047003.5,P
1524694595.6,286047002.7,N
1524694615.5,286047002.5,Y
1524694635.3,286046999.3,P
1524694655.2,286046998.5,N
1524694675.9,286046998.8,N
1524694695.7,286046998.4,N
1524694715.6,286046999.5,N
1524694735.4,286046998.4,N
1524694755.3,286046999.1,N
1524694775.1,286046998.9,N
1524694776.0,286046998.9,N
1524694795.8,286046996.9,N
1524694815.7,286046999.1,N
1524694835.5,286046999.5,N
1524694855.3,286046997.0,N
1524694875.2,286046997.9,N
1524694895.0,286046997.2,N
1524694895.9,286046997.2,N
1524694915.8,286046997.3,N
1524694935.6,286046997.1,N
1524694955.4,286046997.4,N
1524694975.3,286046996.8,N
1524694995.1,286046998.8,N
1524695015.8,286046999.0,N
1524695035.7,286046999.2,N
1524695055.5,286046999.5,N
1524695075.4,286046998.7,N
1524695095.2,286046997.1,N
1524695115.0,286046996.9,N
1524695115.9,286046996.9,N
1524695135.8,286046999.2,N
1524695155.6,286047001.1,N
1524695175.5,286046998.4,N
1524695195.3,286046998.1,N
1524695215.1,286047000.7,N
1524695235.9,286047000.5,N
1524695255.7,286047000.9,N
1524695275.5,286047000.7,N
1524695295.4,286047000.8,N
1524695315.2,286046999.7,N
1524695335.1,286047000.1,N
1524695336.0,286047000.1,N
1524695355.8,286047000.3,N
1524695375.6,286047000.3,N
1524695395.5,286047000.3,N
1524695415.3,286047000.5,N
1524695435.1,286047000.8,N
1524695455.9,286046998.6,N
1524695475.7,286046998.6,N
1524695495.6,286047000.0,N
1524695515.4,286047001.2,N
1524695535.2,286047000.4,N
1524695555.1,286047001.1,N
1524695556.0,286047001.1,N
1524695575.8,286046998.5,N
1524695595.6,286046998.1,N
1524695615.5,286046998.5,N
1524695635.3,286046998.4,N
1524695655.2,286046998.8,N
1524695675.0,286046998.9,N
1524695675.9,286046998.9,N
1524695695.7,286046999.1,N
1524695715.6,286046999.2,N
1524695735.4,286046999.2,N
1524695755.3,286046999.1,N
1524695775.1,286046998.3,N
1524695776.0,286046998.3,N
1524695795.8,286046998.7,N
1524695815.7,286046999.4,N
1524695835.5,286046999.1,N
1524695855.4,286046998.3,N
1524695875.2,286046999.0,N
1524695895.0,286046998.5,N
1524695895.9,286046998.5,N
1524695915.8,286046999.4,N
1524695935.6,286046998.8,N
1524695955.4,286046999.3,N
1524695975.3,286046999.5,N
1524695995.1,286046998.4,N
1524696015.9,286047000.8,N
1524696035.7,286047000.7,N
1524696055.5,286047001.2,N
1524696075.4,286046998.6,N
1524696095.2,286047001.0,N
1524696115.0,286047000.4,N
1524696116.0,286047000.4,N
1524696135.8,286047001.0,N
1524696155.6,286047001.2,N
1524696175.5,286046996.6,Y
1524696195.3,286047001.1,P
1524696215.1,286046998.2,N
1524696235.9,286047001.0,N
1524696255.7,286047000.5,N
1524696275.6,286047000.9,N
1524696295.4,286047002.8,N
1524696315.2,286047000.9,N
1524696335.1,286047000.0,N
1524696336.0,286047000.0,N
1524696355.8,286047000.4,N
1524696375.6,286047002.7,N
1524696395.5,286047001.2,N
1524696415.3,286046998.1,N
1524696435.2,286046998.8,N
1524696455.9,286046998.5,N
1524696475.7,286047000.9,N
1524696495.6,286047000.4,N
1524696515.4,286047002.1,N
1524696535.2,286047000.7,N
1524696555.1,286046998.6,N
1524696556.0,286046998.6,N
1524696575.8,286047000.7,N
1524696595.7,286047001.2,N
1524696615.5,286047000.7,N
1524696635.3,286047000.7,N
1524696655.2,286047000.4,N
1524696675.0,286047000.0,N
1524696675.9,286047000.0,N
1524696695.7,286047000.9,N
1524696715.6,286047000.4,N
1524696735.4,286047001.2,N
1524696755.3,286047000.4,N
1524696775.1,286047000.4,N
1524696795.8,286047002.7,N
1524696815.7,286047001.7,N
1524696835.5,286047002.3,N
1524696855.4,286047001.9,N
1524696875.2,286047002.5,N
1524696895.0,286047002.7,N
1524696895.9,286047002.7,N
1524696915.8,286047001.8,N
1524696935.6,286047001.7,N
1524696955.4,286047001.5,N
1524696975.3,286047001.6,N
1524696995.1,286047006.0,Y
1524697015.9,286047003.8,P
1524697035.7,286047003.6,N
1524697055.5,286047001.6,N
1524697075.4,286047001.8,N
1524697095.2,286047002.0,N
1524697115.0,286047002.5,N
1524697115.9,286047002.5,N
1524697135.8,286047003.7,Y
1524697155.6,286047001.2,P
1524697175.5,286047001.2,N
1524697195.3,286046998.1,P
